EW1975 Weather Reports


Display with metric or nautical units.
time (UTC)temp
F
wind
direction
speed
MPH
gust
MPH
rain 1hr
in
rain 24hr
in
rain mn
in
humidity
%
barometer
mb
20260906121529 69 156 0.0 0.0 0.00 0.14 0.00 19 1011.0
20260906120028 69 157 0.0 0.0 0.00 0.14 0.00 20 1010.9
20260906114525 0 0.0 0.0 0.00 0.14 0.00 1010.7
20260906113021 0 0.0 0.0 0.00 0.14 0.00 1010.7
20260906111525 0 0.0 0.0 0.00 0.14 0.00 1010.5
20260906110011 0 0.0 0.0 0.00 0.14 0.00 1010.6
20260906104507 0 0.0 0.0 0.00 0.14 0.00 1010.6
20260906103002 0 0.0 0.0 0.00 0.14 0.00 1010.5
20260906101559 0 0.0 0.0 0.00 0.14 0.00 1010.3
20260906100057 0 0.0 0.0 0.00 0.14 0.00 1010.5
20260906094602 0 0.0 0.0 0.00 0.14 0.00 1010.5
20260906093049 69 157 0.0 0.0 0.00 0.14 0.00 20 1010.2
20260906091600 69 156 0.0 0.0 0.00 0.14 0.00 21 1010.1
20260906090045 69 156 0.0 0.0 0.00 0.14 0.00 21 1010.1
20260906084544 69 156 0.0 0.0 0.00 0.14 0.00 21 1010.0
20260906083043 69 156 0.0 0.0 0.00 0.14 0.00 20 1009.9
20260906081544 69 155 0.0 0.0 0.00 0.14 0.00 21 1009.8
20260906080043 69 156 0.0 0.0 0.00 0.14 0.00 21 1009.9
20260906074547 69 156 0.0 0.0 0.00 0.14 0.00 21 1010.0
20260906073040 69 156 0.0 0.0 0.00 0.14 0.00 21 1009.9
20260906071539 69 155 0.0 0.0 0.00 0.14 0.00 21 1009.9
20260906070039 69 156 0.0 0.0 0.00 0.14 0.00 21 1009.8
20260906064537 69 156 0.0 0.0 0.00 0.14 0.00 22 1010.0
20260906063037 69 156 0.0 0.0 0.00 0.14 0.00 22 1010.1
20260906061535 69 156 0.0 0.0 0.00 0.14 0.00 22 1010.1
20260906060032 70 156 0.0 0.0 0.00 0.14 0.00 23 1010.4
20260906054539 70 156 0.0 0.0 0.00 0.14 0.00 23 1010.6
20260906053028 70 155 0.0 0.0 0.00 0.14 0.00 23 1010.8
20260906051528 70 155 0.0 0.0 0.00 0.14 0.00 23 1010.9
20260906050024 70 155 0.0 0.0 0.00 0.14 0.00 24 1010.9
20260906044524 70 155 0.0 0.0 0.00 0.14 0.14 24 1010.7
20260906043030 70 156 0.0 0.0 0.00 0.14 0.14 25 1010.9
20260906041522 70 156 0.0 0.0 0.00 0.14 0.14 25 1011.0
20260906040022 70 155 0.0 0.0 0.00 0.14 0.14 26 1011.3
20260906034521 70 155 0.0 0.0 0.00 0.14 0.14 27 1011.2
20260906033025 70 153 0.0 0.0 0.00 0.14 0.14 28 1011.2
20260906031520 70 117 0.0 0.0 0.00 0.14 0.14 30 1011.3
20260906030022 70 117 0.0 0.0 0.00 0.14 0.14 32 1011.3
20260906024518 70 117 0.0 0.0 0.00 0.14 0.14 34 1011.0
20260906023017 70 117 0.0 5.0 0.00 0.14 0.14 36 1011.1
20260906021518 70 65 0.0 1.0 0.08 0.14 0.14 43 1010.6
20260906020016 71 59 4.0 7.0 0.14 0.14 0.14 59 1010.3
20260906014515 72 217 2.0 3.0 0.14 0.14 0.14 70 1009.9
20260906013023 72 216 3.0 8.0 0.14 0.14 0.14 75 1010.0
20260906011513 72 248 5.0 10.0 0.05 0.05 0.05 77 1010.1
20260906010010 75 55 9.0 28.0 0.00 0.00 0.00 77 1010.5
20260906004510 82 30 5.0 28.0 0.00 0.00 0.00 63 1009.9
20260906003009 85 205 0.0 7.0 0.00 0.00 0.00 74 1008.7
20260906001516 85 219 0.0 2.0 0.00 0.00 0.00 75 1008.4
20260906000026 86 226 0.0 3.0 0.00 0.00 0.00 75 1008.7
20260905234508 87 219 0.0 0.0 0.00 0.00 0.00 74 1008.7
20260905233007 88 223 0.0 0.0 0.00 0.00 0.00 73 1008.8
20260905231607 88 224 0.0 0.0 0.00 0.00 0.00 73 1008.6
20260905230005 88 221 0.0 5.0 0.00 0.00 0.00 72 1008.6
20260905224503 89 223 5.0 8.0 0.00 0.00 0.00 70 1008.5
20260905223006 90 237 7.0 10.0 0.00 0.00 0.00 67 1008.5
20260905221501 92 231 3.0 9.0 0.00 0.00 0.00 67 1008.5
20260905214603 92 253 7.0 12.0 0.00 0.00 0.00 66 1008.4
20260905213100 92 242 9.0 14.0 0.00 0.00 0.00 66 1008.4
20260905211600 92 209 4.0 12.0 0.00 0.00 0.00 66 1008.5
20260905210115 96 127 2.0 5.0 0.00 0.00 0.00 55 1008.2
20260905204558 97 20 2.0 6.0 0.00 0.00 0.00 49 1008.6
20260905203049 96 261 0.0 7.0 0.00 0.00 0.00 52 1008.6
20260905201546 95 80 0.0 2.0 0.00 0.00 0.00 52 1008.9
20260905200044 96 56 5.0 9.0 0.00 0.00 0.00 51 1009.1
20260905194542 95 360 0.0 3.0 0.00 0.00 0.00 51 1009.3
20260905193039 95 54 2.0 9.0 0.00 0.00 0.00 53 1009.4
20260905191537 94 59 0.0 7.0 0.00 0.00 0.00 52 1009.7
20260905190137 96 30 5.0 9.0 0.00 0.00 0.00 52 1009.8
20260905184550 95 157 2.0 9.0 0.00 0.00 0.00 55 1010.2
20260905183040 93 186 0.0 4.0 0.00 0.00 0.00 58 1010.4
20260905181525 92 54 3.0 7.0 0.00 0.00 0.00 55 1010.6
20260905180029 93 116 0.0 7.0 0.00 0.00 0.00 58 1010.6
20260905174521 93 42 4.0 11.0 0.00 0.00 0.00 56 1010.9
20260905173018 92 65 4.0 11.0 0.00 0.00 0.00 57 1011.1
20260905171516 92 340 3.0 8.0 0.00 0.00 0.00 58 1011.4
20260905170014 91 82 6.0 9.0 0.00 0.00 0.00 58 1011.6
20260905164513 91 40 0.0 11.0 0.00 0.00 0.00 61 1011.9
20260905163009 90 331 3.0 10.0 0.00 0.00 0.00 61 1012.0
20260905161507 90 62 5.0 8.0 0.00 0.00 0.00 63 1012.1
20260905160003 88 63 4.0 8.0 0.00 0.00 0.00 67 1012.0
20260905154502 88 36 7.0 12.0 0.00 0.00 0.00 66 1012.0
20260905153113 88 84 4.0 8.0 0.00 0.00 0.00 68 1012.0
20260905151603 88 9 1.0 8.0 0.00 0.00 0.00 67 1012.2
20260905150054 86 20 3.0 7.0 0.00 0.00 0.00 67 1012.3
20260905144551 85 52 0.0 8.0 0.00 0.00 0.00 67 1012.4
20260905143046 84 77 0.0 0.0 0.00 0.00 0.00 64 1012.5
20260905141543 82 72 0.0 0.0 0.00 0.00 0.00 60 1012.6
20260905140041 81 119 0.0 0.0 0.00 0.00 0.00 51 1012.7
20260905134533 78 121 0.0 0.0 0.00 0.00 0.00 36 1012.8
20260905133039 76 122 0.0 0.0 0.00 0.00 0.00 19 1012.9
20260905131524 74 122 0.0 0.0 0.00 0.00 0.00 14 1013.0
20260905130022 73 123 0.0 0.0 0.00 0.00 0.00 16 1012.9
20260905124522 71 123 0.0 0.0 0.00 0.00 0.00 18 1012.9